Hourly Data Report for October 23, 2013

All times are specified in Local Standard Time (LST). Add 1 hour to adjust for Daylight Saving Time where and when it is observed.

FREDERICTON
NEW BRUNSWICK

45°52'08.000" N
66°32'14.000" W
20.70 m
8101505
71700
YFC

Download Data

Hourly Data (October 2013)
Hourly Data Report for October 23, 2013
Temp Definition
°C
Dew Point Temp Definition
°C
Rel Hum Definition
%
Wind Dir Definition
10's deg

Wind Spd Definition
km/h
Visibility Definition
km
Stn Press Definition
kPa
Hmdx Definition


Wind Chill Definition


Weather Definition


TIME
00:00 Legend Double Dagger 6.7 5.3 91 21 13 16.1 100.33     LegendNANA
01:00 Legend Double Dagger 6.3 5.3 93 23 11 16.1 100.35     LegendNANA
02:00 Legend Double Dagger 4.9 4.5 97 23 8 16.1 100.35     LegendNANA
03:00 Legend Double Dagger 2.9 2.6 98 21 4 16.1 100.33     LegendNANA
04:00 Legend Double Dagger 1.2 1.2 100 18 9 6.4 100.36     LegendNANA
05:00 Legend Double Dagger -0.1 -0.1 100 19 5 2.8 100.37   -2 LegendNANA
06:00 Legend Double Dagger 0.5 0.5 100 21 9 16.1 100.40     LegendNANA
07:00 Legend Double Dagger -0.1 -0.1 100   0 4.8 100.40     LegendNANA
08:00 Legend Double Dagger 0.3 0.3 100 19 4 4.0 100.42     LegendNANA
09:00 Legend Double Dagger 4.0 3.0 93 LegendMM 4 16.1 100.40     LegendNANA
10:00 Legend Double Dagger 7.0 2.5 73 27 8 16.1 100.40     LegendNANA
11:00 Legend Double Dagger 9.1 1.3 58 25 9 16.1 100.35     LegendNANA
12:00 Legend Double Dagger 10.5 1.7 54 23 15 16.1 100.26     LegendNANA
13:00 Legend Double Dagger 10.2 -0.1 49 21 18 16.1 100.15     LegendNANA
14:00 Legend Double Dagger 11.6 0.3 46 22 18 16.1 100.03     LegendNANA
15:00 Legend Double Dagger 10.8 -1.1 44 27 17 16.1 100.00     LegendNANA
16:00 Legend Double Dagger 10.0 -0.1 49 27 8 16.1 100.03     LegendNANA
17:00 Legend Double Dagger 8.8 1.2 59 30 9 16.1 99.96     LegendNANA
18:00 Legend Double Dagger 7.9 0.7 60 31 8 16.1 100.00     LegendNANA
19:00 Legend Double Dagger 7.2 1.2 65 30 4 16.1 100.03     LegendNANA
20:00 Legend Double Dagger 5.4 2.8 83 31 4 16.1 99.94     LegendNANA
21:00 Legend Double Dagger 5.7 2.3 79 32 9 16.1 99.90     LegendNANA
22:00 Legend Double Dagger 4.4 2.0 85   0 16.1 99.92     LegendNANA
23:00 Legend Double Dagger 4.0 2.5 90 23 5 16.1 99.89     LegendNANA

Notes on Data Quality.

Legend

  • E = Estimated
  • M = Missing
  • NA = Not Available
  • ‡ = Partner data that is not subject to review by the National Climate Archives
Date modified: